一网星座-0148星 (ONEWEB-0148 )

导读 | 星芒AI

ONEWEB-0148 是 OneWeb 卫星星座计划中的一颗低轨通信卫星,旨在为全球提供高速互联网服务。该卫星由 OneWeb 公司部署,采用先进的通信技术,支持偏远地区和航空、航海等移动场景的网络连接。作为 OneWeb 第二批卫星的一部分,它运行在约 1200 公里的轨道高度,与其他卫星协同工作,构建全球覆盖的宽带网络。该计划致力于弥合数字鸿沟,提升全球通信基础设施水平。

基本信息
目录编号:
48059
目录名称:
ONEWEB-0148
国际标识:
2021-025T
轨道中心:
EARTH
卫星名称:
一网星座-0148星
卫星全名:
一网星座-0148星 (ONEWEB-0148 )
卫星状态:
在轨 (已飞行1680 天)
发射日期:
2021-03-25 UTC
国别 :
英国 (GB)
星等 :
--
轨道信息
数据来源 国际轨道数据
星历时间: 2025-10-29T18:56:20+0800
18小时前
查看轨道信息
半长轴: 7587.9km
偏心率: 0.0001679
轨道倾角: 87.903°
近地点辐角 80.088°
升交点赤经 6.093°
平近点角 280.044°
近地点: 1208.49km
远地点: 1211.04km
周期: 109.633分钟
每日圈数: 13.134707
详细信息
平衡模式:
三轴稳定
覆盖范围:
全球
运营商:
一网卫星公司
运营商所在国:
英国
制造商(研发单位):
一网卫星公司
制造商所在国:
英国
使用方式:
暂无
卫星简介
OneWeb卫星网络由648颗重约125公斤的微型卫星组成,运行在1200公里的轨道上。 每颗卫星都能够提供至少每秒8千兆位的吞吐量,以使用其高吞吐量的Ku频段有效载荷为家庭和移动平台提供互联网接入。该卫星仍在工作。
2D轨道图
3D轨道图
轨道高度分析图
轨道倾角分析图
轨道综合分析图
查看轨道综合分析图